Time,TemperatureF,DewpointF,PressureIn,WindDirection,WindDirectionDegrees,WindSpeedMPH,WindSpeedGustMPH,Humidity,HourlyPrecipIn,Conditions,Clouds,dailyrainin,SoftwareType,DateUTC
2013-01-11 00:02:00,36.9,35.1,29.91,ESE,113,0.0,0.0,93,0.08,,,0.43,meteohub,2013-01-11 06:02:00,
2013-01-11 00:07:00,36.9,35.1,29.91,ENE,68,0.0,0.0,93,0.07,,,0.00,meteohub,2013-01-11 06:07:00,
2013-01-11 00:12:00,37.0,35.2,29.91,NE,45,0.0,0.0,93,0.05,,,0.00,meteohub,2013-01-11 06:12:00,
2013-01-11 00:17:00,37.0,35.4,29.91,SSE,158,0.0,0.0,94,0.05,,,0.00,meteohub,2013-01-11 06:17:00,
2013-01-11 00:22:00,37.2,35.6,29.91,SSE,158,0.0,0.0,94,0.04,,,0.00,meteohub,2013-01-11 06:22:00,
2013-01-11 00:27:00,37.2,35.6,29.90,NE,45,0.0,0.0,94,0.02,,,0.00,meteohub,2013-01-11 06:27:00,
2013-01-11 00:32:00,37.4,36.9,29.90,East,90,0.0,0.0,98,0.02,,,0.00,meteohub,2013-01-11 06:32:00,
2013-01-11 00:37:00,37.4,36.9,29.90,East,90,0.0,0.0,98,0.01,,,0.00,meteohub,2013-01-11 06:37:00,
2013-01-11 00:42:00,37.6,37.0,29.90,WSW,248,0.0,0.0,98,0.01,,,0.00,meteohub,2013-01-11 06:42:00,
2013-01-11 00:47:00,37.8,37.2,29.89,SE,135,0.0,0.0,98,0.00,,,0.00,meteohub,2013-01-11 06:47:00,
2013-01-11 00:52:00,37.8,37.6,29.89,SE,135,0.0,0.0,99,0.00,,,0.00,meteohub,2013-01-11 06:52:00,
2013-01-11 00:57:00,37.8,37.6,29.88,SE,135,0.0,0.0,99,0.00,,,0.00,meteohub,2013-01-11 06:57:00,
2013-01-11 01:02:00,37.8,37.6,29.88,SE,135,0.0,0.0,99,0.00,,,0.00,meteohub,2013-01-11 07:02:00,
2013-01-11 01:07:00,37.8,37.6,29.88,SW,225,0.0,0.0,99,0.00,,,0.00,meteohub,2013-01-11 07:07:00,
2013-01-11 01:12:00,37.8,37.6,29.88,NE,45,0.0,0.0,99,0.00,,,0.00,meteohub,2013-01-11 07:12:00,
2013-01-11 01:17:00,37.9,37.8,29.88,North,-999,-999.0,0.0,99,0.00,,,0.00,meteohub,2013-01-11 07:17:00,
2013-01-11 01:22:00,37.9,37.8,29.87,ENE,68,0.0,0.0,99,0.01,,,0.01,meteohub,2013-01-11 07:22:00,
2013-01-11 01:27:00,38.1,37.9,29.87,ENE,68,0.0,0.0,99,0.01,,,0.01,meteohub,2013-01-11 07:27:00,
2013-01-11 01:32:00,37.9,37.8,29.86,NE,45,0.0,0.0,99,0.01,,,0.01,meteohub,2013-01-11 07:32:00,
2013-01-11 01:37:00,37.9,37.8,29.86,East,90,0.0,0.0,99,0.01,,,0.01,meteohub,2013-01-11 07:37:00,
2013-01-11 01:42:00,37.9,37.8,29.85,East,90,0.0,0.0,99,0.01,,,0.01,meteohub,2013-01-11 07:42:00,
2013-01-11 01:47:00,37.9,37.8,29.85,North,-999,-999.0,0.0,99,0.01,,,0.01,meteohub,2013-01-11 07:47:00,
2013-01-11 01:52:00,37.9,37.8,29.85,North,-999,-999.0,0.0,99,0.01,,,0.01,meteohub,2013-01-11 07:52:00,
2013-01-11 01:57:00,37.9,37.8,29.84,North,-999,-999.0,0.0,99,0.01,,,0.01,meteohub,2013-01-11 07:57:00,
2013-01-11 02:02:00,37.9,37.8,29.84,North,-999,-999.0,-999.0,99,0.01,,,0.01,meteohub,2013-01-11 08:02:00,
2013-01-11 02:07:00,37.9,37.8,29.83,North,-999,-999.0,-999.0,99,0.01,,,0.01,meteohub,2013-01-11 08:07:00,
2013-01-11 02:12:00,37.9,37.8,29.83,North,-999,-999.0,-999.0,99,0.01,,,0.01,meteohub,2013-01-11 08:12:00,
2013-01-11 02:17:00,37.9,37.8,29.82,North,-999,-999.0,-999.0,99,0.00,,,0.01,meteohub,2013-01-11 08:17:00,
2013-01-11 02:22:00,38.1,37.9,29.82,North,-999,-999.0,-999.0,99,0.01,,,0.02,meteohub,2013-01-11 08:22:00,
2013-01-11 02:27:00,38.1,37.9,29.81,North,-999,-999.0,-999.0,99,0.01,,,0.02,meteohub,2013-01-11 08:27:00,
2013-01-11 02:32:00,38.1,37.9,29.81,North,-999,-999.0,-999.0,99,0.01,,,0.02,meteohub,2013-01-11 08:32:00,
2013-01-11 02:37:00,38.3,38.1,29.81,North,-999,-999.0,-999.0,99,0.01,,,0.02,meteohub,2013-01-11 08:37:00,
2013-01-11 02:42:00,38.3,38.1,29.81,North,-999,-999.0,-999.0,99,0.01,,,0.02,meteohub,2013-01-11 08:42:00,
2013-01-11 02:47:00,38.3,38.1,29.80,North,-999,-999.0,-999.0,99,0.01,,,0.02,meteohub,2013-01-11 08:47:00,
2013-01-11 02:52:00,38.3,38.1,29.80,North,-999,-999.0,-999.0,99,0.01,,,0.02,meteohub,2013-01-11 08:52:00,
2013-01-11 02:57:00,38.3,38.1,29.80,North,-999,-999.0,-999.0,99,0.01,,,0.02,meteohub,2013-01-11 08:57:00,
2013-01-11 03:02:00,38.5,38.3,29.80,North,-999,-999.0,-999.0,99,0.01,,,0.02,meteohub,2013-01-11 09:02:00,
2013-01-11 03:07:00,38.3,38.1,29.79,North,-999,-999.0,-999.0,99,0.01,,,0.02,meteohub,2013-01-11 09:07:00,
2013-01-11 03:17:00,38.3,38.1,29.79,North,-999,-999.0,-999.0,99,0.02,,,0.04,meteohub,2013-01-11 09:17:00,
2013-01-11 03:22:00,38.3,38.1,29.78,North,-999,-999.0,-999.0,99,0.01,,,0.04,meteohub,2013-01-11 09:22:00,
2013-01-11 03:27:00,38.3,38.1,29.78,North,-999,-999.0,-999.0,99,0.01,,,0.04,meteohub,2013-01-11 09:27:00,
2013-01-11 03:32:00,38.3,38.1,29.77,North,-999,-999.0,-999.0,99,0.01,,,0.04,meteohub,2013-01-11 09:32:00,
2013-01-11 03:37:00,38.5,38.3,29.76,North,-999,-999.0,-999.0,99,0.01,,,0.04,meteohub,2013-01-11 09:37:00,
2013-01-11 03:42:00,38.5,38.3,29.75,North,-999,-999.0,-999.0,99,0.01,,,0.04,meteohub,2013-01-11 09:42:00,
2013-01-11 03:47:00,38.7,38.5,29.75,North,-999,-999.0,-999.0,99,0.01,,,0.04,meteohub,2013-01-11 09:47:00,
2013-01-11 03:52:00,38.7,38.5,29.74,North,-999,-999.0,-999.0,99,0.01,,,0.04,meteohub,2013-01-11 09:52:00,
2013-01-11 03:57:00,38.8,38.7,29.73,North,-999,-999.0,-999.0,99,0.02,,,0.05,meteohub,2013-01-11 09:57:00,
2013-01-11 04:02:00,38.8,38.7,29.73,North,-999,-999.0,-999.0,99,0.02,,,0.05,meteohub,2013-01-11 10:02:00,
2013-01-11 04:07:00,39.0,38.8,29.72,North,-999,-999.0,-999.0,99,0.02,,,0.05,meteohub,2013-01-11 10:07:00,
2013-01-11 04:12:00,39.0,38.8,29.72,North,-999,-999.0,-999.0,99,0.01,,,0.05,meteohub,2013-01-11 10:12:00,
2013-01-11 04:17:00,39.0,38.8,29.72,North,-999,-999.0,-999.0,99,0.01,,,0.05,meteohub,2013-01-11 10:17:00,
2013-01-11 04:22:00,39.2,39.0,29.71,North,-999,-999.0,-999.0,99,0.02,,,0.06,meteohub,2013-01-11 10:22:00,
2013-01-11 04:27:00,39.2,39.0,29.70,North,-999,-999.0,-999.0,99,0.02,,,0.06,meteohub,2013-01-11 10:27:00,
2013-01-11 04:32:00,39.2,39.0,29.70,North,-999,-999.0,-999.0,99,0.02,,,0.06,meteohub,2013-01-11 10:32:00,
2013-01-11 04:37:00,39.2,39.0,29.70,North,-999,-999.0,-999.0,99,0.02,,,0.06,meteohub,2013-01-11 10:37:00,
2013-01-11 04:42:00,39.2,39.0,29.70,North,-999,-999.0,-999.0,99,0.02,,,0.06,meteohub,2013-01-11 10:42:00,
2013-01-11 04:47:00,39.2,39.0,29.69,North,-999,-999.0,-999.0,99,0.02,,,0.06,meteohub,2013-01-11 10:47:00,
2013-01-11 04:52:00,39.4,39.2,29.69,North,-999,-999.0,-999.0,99,0.01,,,0.06,meteohub,2013-01-11 10:52:00,
2013-01-11 04:57:00,39.4,39.2,29.68,North,-999,-999.0,-999.0,99,0.01,,,0.06,meteohub,2013-01-11 10:57:00,
2013-01-11 05:02:00,39.6,39.4,29.69,North,-999,-999.0,-999.0,99,0.01,,,0.06,meteohub,2013-01-11 11:02:00,
2013-01-11 05:07:00,39.7,39.6,29.70,North,-999,-999.0,-999.0,99,0.01,,,0.06,meteohub,2013-01-11 11:07:00,
2013-01-11 05:12:00,39.7,39.6,29.69,SE,135,0.0,-999.0,99,0.01,,,0.06,meteohub,2013-01-11 11:12:00,
2013-01-11 05:17:00,39.9,39.7,29.69,SE,135,0.0,0.0,99,0.01,,,0.06,meteohub,2013-01-11 11:17:00,
2013-01-11 05:22:00,40.1,39.9,29.69,North,-999,-999.0,0.0,99,0.00,,,0.06,meteohub,2013-01-11 11:22:00,
2013-01-11 05:27:00,40.1,39.9,29.69,North,-999,-999.0,0.0,99,0.00,,,0.06,meteohub,2013-01-11 11:27:00,
2013-01-11 05:32:00,40.1,39.9,29.68,North,-999,-999.0,-999.0,99,0.00,,,0.06,meteohub,2013-01-11 11:32:00,
2013-01-11 05:37:00,39.7,39.6,29.68,North,-999,-999.0,-999.0,99,0.00,,,0.06,meteohub,2013-01-11 11:37:00,
2013-01-11 05:42:00,39.6,39.4,29.68,North,-999,-999.0,-999.0,99,0.00,,,0.06,meteohub,2013-01-11 11:42:00,
2013-01-11 05:47:00,39.6,39.4,29.68,North,-999,-999.0,-999.0,99,0.00,,,0.06,meteohub,2013-01-11 11:47:00,
2013-01-11 05:52:00,39.6,39.4,29.69,North,-999,-999.0,-999.0,99,0.00,,,0.06,meteohub,2013-01-11 11:52:00,
2013-01-11 05:57:00,39.6,39.4,29.69,North,-999,-999.0,-999.0,99,0.00,,,0.06,meteohub,2013-01-11 11:57:00,
2013-01-11 06:02:00,39.6,39.4,29.69,North,-999,-999.0,-999.0,99,0.00,,,0.06,meteohub,2013-01-11 12:02:00,
2013-01-11 06:07:00,39.2,39.0,29.69,North,-999,-999.0,-999.0,99,0.00,,,0.06,meteohub,2013-01-11 12:07:00,
2013-01-11 06:12:00,39.2,39.0,29.69,North,-999,-999.0,-999.0,99,0.00,,,0.06,meteohub,2013-01-11 12:12:00,
2013-01-11 06:17:00,39.2,39.0,29.69,North,-999,-999.0,-999.0,99,0.00,,,0.06,meteohub,2013-01-11 12:17:00,
2013-01-11 06:22:00,39.0,38.8,29.69,North,-999,-999.0,-999.0,99,0.00,,,0.06,meteohub,2013-01-11 12:22:00,
2013-01-11 06:27:00,39.0,38.8,29.69,North,-999,-999.0,-999.0,99,0.01,,,0.07,meteohub,2013-01-11 12:27:00,
2013-01-11 06:32:00,38.8,38.7,29.68,North,-999,-999.0,-999.0,99,0.01,,,0.07,meteohub,2013-01-11 12:32:00,
2013-01-11 06:37:00,38.8,38.7,29.68,North,-999,-999.0,-999.0,99,0.01,,,0.07,meteohub,2013-01-11 12:37:00,
2013-01-11 06:42:00,38.8,38.7,29.68,North,-999,-999.0,-999.0,99,0.01,,,0.07,meteohub,2013-01-11 12:42:00,
2013-01-11 06:47:00,38.7,38.5,29.68,North,-999,-999.0,-999.0,99,0.01,,,0.07,meteohub,2013-01-11 12:47:00,
2013-01-11 06:52:00,38.7,38.5,29.68,North,-999,-999.0,-999.0,99,0.01,,,0.07,meteohub,2013-01-11 12:52:00,
2013-01-11 06:57:00,38.8,38.7,29.69,North,-999,-999.0,-999.0,99,0.01,,,0.07,meteohub,2013-01-11 12:57:00,
2013-01-11 07:02:00,38.8,38.7,29.69,North,-999,-999.0,-999.0,99,0.01,,,0.07,meteohub,2013-01-11 13:02:00,
2013-01-11 07:07:00,39.0,38.8,29.70,SSW,203,0.0,-999.0,99,0.01,,,0.07,meteohub,2013-01-11 13:07:00,
2013-01-11 07:12:00,39.2,39.0,29.70,SW,225,0.0,0.0,99,0.01,,,0.07,meteohub,2013-01-11 13:12:00,
2013-01-11 07:17:00,39.2,39.0,29.70,SW,225,0.0,0.0,99,0.01,,,0.07,meteohub,2013-01-11 13:17:00,
2013-01-11 07:22:00,39.6,39.4,29.70,South,180,0.0,0.0,99,0.01,,,0.07,meteohub,2013-01-11 13:22:00,
2013-01-11 07:27:00,39.7,39.6,29.70,South,180,0.0,0.0,99,0.00,,,0.07,meteohub,2013-01-11 13:27:00,
2013-01-11 07:32:00,40.3,40.1,29.70,North,-999,-999.0,0.0,99,0.00,,,0.07,meteohub,2013-01-11 13:32:00,
2013-01-11 07:37:00,40.5,40.3,29.70,South,180,0.0,0.0,99,0.00,,,0.07,meteohub,2013-01-11 13:37:00,
2013-01-11 07:42:00,40.5,40.3,29.70,North,-999,-999.0,0.0,99,0.00,,,0.07,meteohub,2013-01-11 13:42:00,
2013-01-11 07:47:00,40.6,40.5,29.70,North,-999,-999.0,0.0,99,0.00,,,0.07,meteohub,2013-01-11 13:47:00,
2013-01-11 07:52:00,41.0,40.8,29.70,North,-999,-999.0,-999.0,99,0.00,,,0.07,meteohub,2013-01-11 13:52:00,
2013-01-11 07:57:00,41.2,41.0,29.70,North,-999,-999.0,-999.0,99,0.00,,,0.07,meteohub,2013-01-11 13:57:00,
2013-01-11 08:02:00,41.4,41.2,29.70,North,-999,-999.0,-999.0,99,0.00,,,0.07,meteohub,2013-01-11 14:02:00,
2013-01-11 08:07:00,41.9,41.7,29.70,North,-999,-999.0,-999.0,99,0.00,,,0.07,meteohub,2013-01-11 14:07:00,
2013-01-11 08:12:00,42.1,41.9,29.70,North,-999,-999.0,-999.0,99,0.00,,,0.07,meteohub,2013-01-11 14:12:00,
2013-01-11 08:17:00,42.3,42.1,29.70,North,-999,-999.0,-999.0,99,0.00,,,0.07,meteohub,2013-01-11 14:17:00,
2013-01-11 08:22:00,42.1,41.9,29.70,North,-999,-999.0,-999.0,99,0.00,,,0.07,meteohub,2013-01-11 14:22:00,
2013-01-11 08:27:00,42.3,42.1,29.70,North,-999,-999.0,-999.0,99,0.00,,,0.07,meteohub,2013-01-11 14:27:00,
2013-01-11 08:32:00,42.4,42.3,29.69,North,-999,-999.0,-999.0,99,0.01,,,0.08,meteohub,2013-01-11 14:32:00,
2013-01-11 08:37:00,42.8,42.3,29.69,North,-999,-999.0,-999.0,98,0.01,,,0.08,meteohub,2013-01-11 14:37:00,
2013-01-11 08:42:00,43.0,42.4,29.69,North,-999,-999.0,-999.0,98,0.01,,,0.08,meteohub,2013-01-11 14:42:00,
2013-01-11 08:47:00,43.0,42.4,29.69,North,-999,-999.0,-999.0,98,0.01,,,0.08,meteohub,2013-01-11 14:47:00,
2013-01-11 08:52:00,43.0,42.4,29.68,North,-999,-999.0,-999.0,98,0.01,,,0.08,meteohub,2013-01-11 14:52:00,
2013-01-11 08:57:00,43.0,42.4,29.68,North,-999,-999.0,-999.0,98,0.01,,,0.08,meteohub,2013-01-11 14:57:00,
2013-01-11 09:02:00,43.0,42.4,29.68,North,-999,-999.0,-999.0,98,0.01,,,0.08,meteohub,2013-01-11 15:02:00,
2013-01-11 09:07:00,43.0,42.4,29.68,North,-999,-999.0,-999.0,98,0.01,,,0.08,meteohub,2013-01-11 15:07:00,
2013-01-11 09:12:00,43.2,42.6,29.68,North,-999,-999.0,-999.0,98,0.01,,,0.08,meteohub,2013-01-11 15:12:00,
2013-01-11 09:17:00,43.2,42.6,29.68,North,-999,-999.0,-999.0,98,0.01,,,0.08,meteohub,2013-01-11 15:17:00,
2013-01-11 09:22:00,43.3,42.8,29.68,North,-999,-999.0,-999.0,98,0.01,,,0.08,meteohub,2013-01-11 15:22:00,
2013-01-11 09:27:00,43.3,42.8,29.68,North,-999,-999.0,-999.0,98,0.01,,,0.08,meteohub,2013-01-11 15:27:00,
2013-01-11 09:32:00,43.5,43.0,29.68,North,-999,-999.0,-999.0,98,0.00,,,0.08,meteohub,2013-01-11 15:32:00,
2013-01-11 09:37:00,43.5,43.0,29.68,North,-999,-999.0,-999.0,98,0.00,,,0.08,meteohub,2013-01-11 15:37:00,
2013-01-11 09:42:00,43.5,43.0,29.68,North,-999,-999.0,-999.0,98,0.00,,,0.08,meteohub,2013-01-11 15:42:00,
2013-01-11 09:47:00,43.9,43.3,29.69,North,-999,-999.0,-999.0,98,0.00,,,0.08,meteohub,2013-01-11 15:47:00,
2013-01-11 09:52:00,44.1,43.5,29.69,SW,225,0.0,-999.0,98,0.00,,,0.08,meteohub,2013-01-11 15:52:00,
2013-01-11 09:57:00,44.2,43.7,29.69,SW,225,0.0,0.0,98,0.00,,,0.08,meteohub,2013-01-11 15:57:00,
2013-01-11 10:02:00,44.2,43.7,29.69,North,-999,-999.0,0.0,98,0.00,,,0.08,meteohub,2013-01-11 16:02:00,
2013-01-11 10:07:00,44.2,43.7,29.70,North,-999,-999.0,0.0,98,0.00,,,0.08,meteohub,2013-01-11 16:07:00,
2013-01-11 10:12:00,44.4,43.9,29.70,North,-999,-999.0,-999.0,98,0.00,,,0.08,meteohub,2013-01-11 16:12:00,
2013-01-11 10:17:00,44.4,43.9,29.70,North,-999,-999.0,-999.0,98,0.00,,,0.08,meteohub,2013-01-11 16:17:00,
2013-01-11 10:22:00,44.6,43.9,29.70,North,-999,-999.0,-999.0,97,0.00,,,0.08,meteohub,2013-01-11 16:22:00,
2013-01-11 10:27:00,44.6,43.9,29.70,North,-999,-999.0,-999.0,97,0.00,,,0.08,meteohub,2013-01-11 16:27:00,
2013-01-11 10:32:00,44.8,44.1,29.70,North,-999,-999.0,-999.0,97,0.00,,,0.08,meteohub,2013-01-11 16:32:00,
2013-01-11 10:37:00,45.1,44.4,29.70,North,-999,-999.0,-999.0,97,0.00,,,0.08,meteohub,2013-01-11 16:37:00,
2013-01-11 10:42:00,45.1,44.4,29.71,North,-999,-999.0,-999.0,97,0.00,,,0.08,meteohub,2013-01-11 16:42:00,
2013-01-11 10:47:00,45.0,44.2,29.70,North,-999,-999.0,-999.0,97,0.00,,,0.08,meteohub,2013-01-11 16:47:00,
2013-01-11 10:52:00,44.8,44.1,29.70,North,-999,-999.0,-999.0,97,0.00,,,0.08,meteohub,2013-01-11 16:52:00,
2013-01-11 10:57:00,44.6,43.9,29.70,SW,225,0.0,-999.0,97,0.00,,,0.08,meteohub,2013-01-11 16:57:00,
2013-01-11 11:02:00,44.4,43.9,29.70,WSW,248,0.0,0.0,98,0.00,,,0.08,meteohub,2013-01-11 17:02:00,
2013-01-11 11:07:00,44.4,43.9,29.70,SSW,203,0.0,0.0,98,0.00,,,0.08,meteohub,2013-01-11 17:07:00,
2013-01-11 11:12:00,44.6,43.9,29.70,SSW,203,0.0,0.0,97,0.00,,,0.08,meteohub,2013-01-11 17:12:00,
2013-01-11 11:17:00,44.8,44.1,29.71,North,-999,-999.0,0.0,97,0.00,,,0.08,meteohub,2013-01-11 17:17:00,
2013-01-11 11:22:00,44.8,44.1,29.72,West,270,0.0,0.0,97,0.00,,,0.08,meteohub,2013-01-11 17:22:00,
2013-01-11 11:27:00,45.0,44.2,29.71,North,-999,-999.0,0.0,97,0.00,,,0.08,meteohub,2013-01-11 17:27:00,
2013-01-11 11:32:00,45.0,44.2,29.70,North,-999,-999.0,0.0,97,0.00,,,0.08,meteohub,2013-01-11 17:32:00,
2013-01-11 11:37:00,44.8,44.1,29.71,North,-999,-999.0,0.0,97,0.00,,,0.08,meteohub,2013-01-11 17:37:00,
2013-01-11 11:42:00,44.8,44.1,29.71,SSW,203,0.0,0.0,97,0.00,,,0.08,meteohub,2013-01-11 17:42:00,
2013-01-11 11:47:00,45.0,44.2,29.70,North,-999,-999.0,0.0,97,0.00,,,0.08,meteohub,2013-01-11 17:47:00,
2013-01-11 11:52:00,45.0,44.2,29.70,North,-999,-999.0,0.0,97,0.00,,,0.08,meteohub,2013-01-11 17:52:00,
2013-01-11 11:57:00,44.6,43.9,29.70,North,-999,-999.0,-999.0,97,0.00,,,0.08,meteohub,2013-01-11 17:57:00,
2013-01-11 12:02:00,44.2,43.7,29.70,North,-999,-999.0,-999.0,98,0.00,,,0.08,meteohub,2013-01-11 18:02:00,
2013-01-11 12:07:00,44.2,43.7,29.70,North,-999,-999.0,-999.0,98,0.00,,,0.08,meteohub,2013-01-11 18:07:00,
2013-01-11 12:12:00,44.1,43.5,29.69,North,-999,-999.0,-999.0,98,0.00,,,0.08,meteohub,2013-01-11 18:12:00,
2013-01-11 12:17:00,44.1,43.5,29.70,North,-999,-999.0,-999.0,98,0.00,,,0.08,meteohub,2013-01-11 18:17:00,
2013-01-11 12:22:00,43.9,43.3,29.70,North,-999,-999.0,-999.0,98,0.00,,,0.08,meteohub,2013-01-11 18:22:00,
2013-01-11 12:27:00,43.9,43.3,29.71,SW,225,0.0,-999.0,98,0.00,,,0.08,meteohub,2013-01-11 18:27:00,
2013-01-11 12:32:00,43.9,43.3,29.70,SW,225,0.0,0.0,98,0.00,,,0.08,meteohub,2013-01-11 18:32:00,
2013-01-11 12:37:00,43.9,43.3,29.70,North,-999,-999.0,0.0,98,0.00,,,0.08,meteohub,2013-01-11 18:37:00,
2013-01-11 12:42:00,44.1,43.5,29.70,North,-999,-999.0,0.0,98,0.00,,,0.08,meteohub,2013-01-11 18:42:00,
2013-01-11 12:47:00,44.1,43.5,29.71,North,-999,-999.0,0.0,98,0.00,,,0.08,meteohub,2013-01-11 18:47:00,
2013-01-11 12:52:00,44.1,43.5,29.71,North,-999,-999.0,-999.0,98,0.00,,,0.08,meteohub,2013-01-11 18:52:00,
2013-01-11 12:57:00,43.9,43.3,29.71,North,-999,-999.0,-999.0,98,0.00,,,0.08,meteohub,2013-01-11 18:57:00,
2013-01-11 13:02:00,43.9,43.3,29.71,North,-999,-999.0,-999.0,98,0.00,,,0.08,meteohub,2013-01-11 19:02:00,
2013-01-11 13:07:00,43.9,43.3,29.70,North,-999,-999.0,-999.0,98,0.00,,,0.08,meteohub,2013-01-11 19:07:00,
2013-01-11 13:12:00,44.1,43.5,29.71,North,-999,-999.0,-999.0,98,0.00,,,0.08,meteohub,2013-01-11 19:12:00,
2013-01-11 13:17:00,44.1,43.5,29.70,North,-999,-999.0,-999.0,98,0.00,,,0.08,meteohub,2013-01-11 19:17:00,
2013-01-11 13:22:00,44.2,43.7,29.70,North,-999,-999.0,-999.0,98,0.00,,,0.08,meteohub,2013-01-11 19:22:00,
2013-01-11 13:27:00,44.2,43.7,29.71,North,-999,-999.0,-999.0,98,0.00,,,0.08,meteohub,2013-01-11 19:27:00,
2013-01-11 13:32:00,44.4,43.9,29.71,North,-999,-999.0,-999.0,98,0.00,,,0.08,meteohub,2013-01-11 19:32:00,
2013-01-11 13:37:00,44.8,44.1,29.70,North,-999,-999.0,-999.0,97,0.00,,,0.08,meteohub,2013-01-11 19:37:00,
2013-01-11 13:42:00,45.0,44.2,29.71,North,-999,-999.0,-999.0,97,0.00,,,0.08,meteohub,2013-01-11 19:42:00,
2013-01-11 13:47:00,45.0,44.2,29.71,North,-999,-999.0,-999.0,97,0.00,,,0.08,meteohub,2013-01-11 19:47:00,
2013-01-11 13:52:00,45.1,44.4,29.71,North,-999,-999.0,-999.0,97,0.00,,,0.08,meteohub,2013-01-11 19:52:00,
2013-01-11 13:57:00,45.1,44.4,29.70,North,-999,-999.0,-999.0,97,0.00,,,0.08,meteohub,2013-01-11 19:57:00,
2013-01-11 14:02:00,45.1,44.4,29.71,North,-999,-999.0,-999.0,97,0.00,,,0.08,meteohub,2013-01-11 20:02:00,
2013-01-11 14:07:00,45.3,44.6,29.70,North,-999,-999.0,-999.0,97,0.00,,,0.08,meteohub,2013-01-11 20:07:00,
2013-01-11 14:12:00,45.3,44.6,29.71,SW,225,0.0,-999.0,97,0.00,,,0.08,meteohub,2013-01-11 20:12:00,
2013-01-11 14:17:00,45.3,44.6,29.72,SW,225,0.0,0.0,97,0.00,,,0.08,meteohub,2013-01-11 20:17:00,
2013-01-11 14:22:00,45.3,44.6,29.73,SW,225,0.0,0.0,97,0.00,,,0.08,meteohub,2013-01-11 20:22:00,
2013-01-11 14:27:00,45.3,44.6,29.72,South,180,0.0,0.0,97,0.00,,,0.08,meteohub,2013-01-11 20:27:00,
2013-01-11 14:32:00,45.5,44.8,29.72,South,180,0.0,0.0,97,0.00,,,0.08,meteohub,2013-01-11 20:32:00,
2013-01-11 14:37:00,45.5,44.8,29.72,North,-999,-999.0,0.0,97,0.00,,,0.08,meteohub,2013-01-11 20:37:00,
2013-01-11 14:42:00,45.5,44.8,29.72,North,-999,-999.0,0.0,97,0.00,,,0.08,meteohub,2013-01-11 20:42:00,
2013-01-11 14:47:00,45.5,44.8,29.72,North,-999,-999.0,-999.0,97,0.00,,,0.08,meteohub,2013-01-11 20:47:00,
2013-01-11 14:52:00,45.7,45.0,29.72,North,-999,-999.0,-999.0,97,0.00,,,0.08,meteohub,2013-01-11 20:52:00,
2013-01-11 14:57:00,45.9,45.1,29.71,North,-999,-999.0,-999.0,97,0.00,,,0.08,meteohub,2013-01-11 20:57:00,
2013-01-11 15:02:00,45.9,45.1,29.71,North,-999,-999.0,-999.0,97,0.00,,,0.08,meteohub,2013-01-11 21:02:00,
2013-01-11 15:07:00,45.9,45.1,29.70,North,-999,-999.0,-999.0,97,0.00,,,0.08,meteohub,2013-01-11 21:07:00,
2013-01-11 15:12:00,46.0,45.3,29.71,North,-999,-999.0,-999.0,97,0.00,,,0.08,meteohub,2013-01-11 21:12:00,
2013-01-11 15:17:00,46.0,45.3,29.71,North,-999,-999.0,-999.0,97,0.00,,,0.08,meteohub,2013-01-11 21:17:00,
2013-01-11 15:27:00,46.2,45.5,29.70,North,-999,-999.0,-999.0,97,0.00,,,0.08,meteohub,2013-01-11 21:27:00,
2013-01-11 15:32:00,46.2,45.5,29.70,North,-999,-999.0,-999.0,97,0.00,,,0.08,meteohub,2013-01-11 21:32:00,
2013-01-11 15:37:00,46.2,45.5,29.69,North,-999,-999.0,-999.0,97,0.00,,,0.08,meteohub,2013-01-11 21:37:00,
2013-01-11 15:42:00,46.2,45.5,29.69,North,-999,-999.0,-999.0,97,0.00,,,0.08,meteohub,2013-01-11 21:42:00,
2013-01-11 15:47:00,46.2,45.5,29.70,North,-999,-999.0,-999.0,97,0.00,,,0.08,meteohub,2013-01-11 21:47:00,
2013-01-11 15:52:00,46.2,45.5,29.69,North,-999,-999.0,-999.0,97,0.00,,,0.08,meteohub,2013-01-11 21:52:00,
2013-01-11 15:57:00,46.2,45.5,29.69,North,-999,-999.0,-999.0,97,0.00,,,0.08,meteohub,2013-01-11 21:57:00,
2013-01-11 16:02:00,46.2,45.5,29.69,North,-999,-999.0,-999.0,97,0.00,,,0.08,meteohub,2013-01-11 22:02:00,
2013-01-11 16:07:00,46.2,45.5,29.70,SSW,203,0.0,0.0,97,0.00,,,0.08,meteohub,2013-01-11 22:07:00,
2013-01-11 16:12:00,46.0,45.3,29.69,North,-999,-999.0,0.0,97,0.00,,,0.08,meteohub,2013-01-11 22:12:00,
2013-01-11 16:17:00,46.0,45.3,29.69,North,-999,-999.0,0.0,97,0.00,,,0.08,meteohub,2013-01-11 22:17:00,
2013-01-11 16:22:00,46.4,45.9,29.70,North,-999,-999.0,0.0,98,0.00,,,0.08,meteohub,2013-01-11 22:22:00,
2013-01-11 16:27:00,46.4,45.7,29.71,North,-999,-999.0,-999.0,97,0.00,,,0.08,meteohub,2013-01-11 22:27:00,
2013-01-11 16:32:00,46.6,45.9,29.70,North,-999,-999.0,-999.0,97,0.00,,,0.08,meteohub,2013-01-11 22:32:00,
2013-01-11 16:37:00,46.6,45.9,29.70,North,-999,-999.0,-999.0,97,0.00,,,0.08,meteohub,2013-01-11 22:37:00,
2013-01-11 16:42:00,46.6,45.9,29.70,North,-999,-999.0,-999.0,97,0.00,,,0.08,meteohub,2013-01-11 22:42:00,
2013-01-11 16:47:00,46.6,45.9,29.69,South,180,0.0,-999.0,97,0.00,,,0.08,meteohub,2013-01-11 22:47:00,
2013-01-11 16:52:00,46.8,46.0,29.69,South,180,0.0,0.0,97,0.00,,,0.08,meteohub,2013-01-11 22:52:00,
2013-01-11 16:57:00,46.8,46.0,29.68,SE,135,0.0,0.0,97,0.00,,,0.08,meteohub,2013-01-11 22:57:00,
2013-01-11 17:02:00,46.9,46.2,29.69,South,180,0.0,0.0,97,0.00,,,0.08,meteohub,2013-01-11 23:02:00,
2013-01-11 17:07:00,46.9,46.2,29.68,SE,135,0.0,0.0,97,0.00,,,0.08,meteohub,2013-01-11 23:07:00,
2013-01-11 17:12:00,46.9,46.2,29.70,South,180,0.0,0.0,97,0.00,,,0.08,meteohub,2013-01-11 23:12:00,
2013-01-11 17:17:00,47.1,46.0,29.70,South,180,0.0,0.0,96,0.00,,,0.08,meteohub,2013-01-11 23:17:00,
2013-01-11 17:22:00,47.1,46.0,29.69,South,180,0.0,0.0,96,0.00,,,0.08,meteohub,2013-01-11 23:22:00,
2013-01-11 17:27:00,46.9,45.9,29.69,South,180,0.0,0.0,96,0.00,,,0.08,meteohub,2013-01-11 23:27:00,
2013-01-11 17:32:00,46.9,45.9,29.68,SE,135,0.0,0.0,96,0.00,,,0.08,meteohub,2013-01-11 23:32:00,
2013-01-11 17:37:00,46.9,45.9,29.69,North,-999,-999.0,0.0,96,0.00,,,0.08,meteohub,2013-01-11 23:37:00,
2013-01-11 17:42:00,47.1,46.0,29.69,SE,135,0.0,0.0,96,0.00,,,0.08,meteohub,2013-01-11 23:42:00,
2013-01-11 17:47:00,47.1,45.7,29.68,SW,225,0.0,0.0,95,0.00,,,0.08,meteohub,2013-01-11 23:47:00,
2013-01-11 17:52:00,47.1,45.7,29.69,South,180,0.0,0.0,95,0.00,,,0.08,meteohub,2013-01-11 23:52:00,
2013-01-11 17:57:00,47.1,45.7,29.70,North,-999,-999.0,0.0,95,0.00,,,0.08,meteohub,2013-01-11 23:57:00,
2013-01-11 18:02:00,47.3,45.9,29.69,North,-999,-999.0,0.0,95,0.00,,,0.08,meteohub,2013-01-12 00:02:00,
2013-01-11 18:07:00,47.1,45.7,29.69,South,180,0.0,-999.0,95,0.00,,,0.08,meteohub,2013-01-12 00:07:00,
2013-01-11 18:12:00,47.3,45.9,29.69,North,-999,-999.0,0.0,95,0.00,,,0.08,meteohub,2013-01-12 00:12:00,
2013-01-11 18:17:00,47.1,45.7,29.70,North,-999,-999.0,0.0,95,0.00,,,0.08,meteohub,2013-01-12 00:17:00,
2013-01-11 18:22:00,47.1,45.7,29.69,SSW,203,0.0,0.0,95,0.00,,,0.08,meteohub,2013-01-12 00:22:00,
2013-01-11 18:27:00,47.1,45.7,29.70,SSW,203,0.0,0.0,95,0.00,,,0.08,meteohub,2013-01-12 00:27:00,
2013-01-11 18:32:00,47.1,45.5,29.70,North,-999,-999.0,0.0,94,0.00,,,0.08,meteohub,2013-01-12 00:32:00,
2013-01-11 18:37:00,47.1,45.5,29.70,South,180,0.0,0.0,94,0.00,,,0.08,meteohub,2013-01-12 00:37:00,
2013-01-11 18:47:00,47.3,45.9,29.70,North,-999,-999.0,0.0,95,0.00,,,0.08,meteohub,2013-01-12 00:47:00,
2013-01-11 18:52:00,47.3,45.9,29.70,North,-999,-999.0,0.0,95,0.00,,,0.08,meteohub,2013-01-12 00:52:00,
2013-01-11 18:57:00,47.3,45.9,29.69,North,-999,-999.0,-999.0,95,0.00,,,0.08,meteohub,2013-01-12 00:57:00,
2013-01-11 19:02:00,47.5,46.0,29.68,North,-999,-999.0,-999.0,95,0.00,,,0.08,meteohub,2013-01-12 01:02:00,
2013-01-11 19:07:00,47.5,46.0,29.67,North,-999,-999.0,-999.0,95,0.00,,,0.08,meteohub,2013-01-12 01:07:00,
2013-01-11 19:12:00,47.7,46.2,29.67,North,-999,-999.0,-999.0,95,0.00,,,0.08,meteohub,2013-01-12 01:12:00,
2013-01-11 19:17:00,47.8,46.4,29.68,South,180,0.0,-999.0,95,0.00,,,0.08,meteohub,2013-01-12 01:17:00,
2013-01-11 19:22:00,48.0,46.6,29.68,South,180,0.0,0.0,95,0.00,,,0.08,meteohub,2013-01-12 01:22:00,
2013-01-11 19:27:00,48.2,46.6,29.67,North,-999,-999.0,0.0,94,0.00,,,0.08,meteohub,2013-01-12 01:27:00,
2013-01-11 19:32:00,48.2,46.6,29.67,North,-999,-999.0,0.0,94,0.00,,,0.08,meteohub,2013-01-12 01:32:00,
2013-01-11 19:37:00,48.2,46.6,29.66,South,180,0.0,0.0,94,0.00,,,0.08,meteohub,2013-01-12 01:37:00,
2013-01-11 19:42:00,48.2,46.2,29.66,SSW,203,0.0,0.0,93,0.00,,,0.08,meteohub,2013-01-12 01:42:00,
2013-01-11 19:47:00,48.4,46.8,29.65,North,-999,-999.0,0.0,94,0.00,,,0.08,meteohub,2013-01-12 01:47:00,
2013-01-11 19:52:00,48.4,46.4,29.65,North,-999,-999.0,0.0,93,0.00,,,0.08,meteohub,2013-01-12 01:52:00,
2013-01-11 19:57:00,48.4,46.4,29.66,North,-999,-999.0,-999.0,93,0.00,,,0.08,meteohub,2013-01-12 01:57:00,
2013-01-11 20:02:00,48.6,46.9,29.66,North,-999,-999.0,-999.0,94,0.00,,,0.08,meteohub,2013-01-12 02:02:00,
2013-01-11 20:07:00,48.6,46.6,29.66,North,-999,-999.0,-999.0,93,0.00,,,0.08,meteohub,2013-01-12 02:07:00,
2013-01-11 20:12:00,48.7,46.8,29.66,North,-999,-999.0,-999.0,93,0.00,,,0.08,meteohub,2013-01-12 02:12:00,
2013-01-11 20:17:00,48.7,46.8,29.67,North,-999,-999.0,-999.0,93,0.00,,,0.08,meteohub,2013-01-12 02:17:00,
2013-01-11 20:27:00,48.9,46.9,29.66,North,-999,-999.0,-999.0,93,0.00,,,0.08,meteohub,2013-01-12 02:27:00,
2013-01-11 20:32:00,49.1,47.1,29.65,North,-999,-999.0,-999.0,93,0.00,,,0.08,meteohub,2013-01-12 02:32:00,
2013-01-11 20:37:00,49.3,47.3,29.66,North,-999,-999.0,-999.0,93,0.00,,,0.08,meteohub,2013-01-12 02:37:00,
2013-01-11 20:42:00,49.5,47.3,29.65,North,-999,-999.0,-999.0,92,0.00,,,0.08,meteohub,2013-01-12 02:42:00,
2013-01-11 20:47:00,49.5,47.3,29.65,North,-999,-999.0,-999.0,92,0.00,,,0.08,meteohub,2013-01-12 02:47:00,
2013-01-11 20:52:00,49.6,47.5,29.65,SE,135,0.0,-999.0,92,0.00,,,0.08,meteohub,2013-01-12 02:52:00,
2013-01-11 20:57:00,49.6,47.1,29.65,North,-999,-999.0,0.0,91,0.00,,,0.08,meteohub,2013-01-12 02:57:00,
2013-01-11 21:02:00,49.6,47.1,29.65,North,-999,-999.0,0.0,91,0.00,,,0.08,meteohub,2013-01-12 03:02:00,
2013-01-11 21:07:00,49.8,47.3,29.64,North,-999,-999.0,0.0,91,0.00,,,0.08,meteohub,2013-01-12 03:07:00,
2013-01-11 21:12:00,50.0,47.1,29.64,North,-999,-999.0,-999.0,90,0.00,,,0.08,meteohub,2013-01-12 03:12:00,
2013-01-11 21:17:00,50.2,47.1,29.65,North,-999,-999.0,-999.0,89,0.00,,,0.08,meteohub,2013-01-12 03:17:00,
2013-01-11 21:22:00,50.4,47.3,29.65,North,-999,-999.0,-999.0,89,0.00,,,0.08,meteohub,2013-01-12 03:22:00,
2013-01-11 21:27:00,50.5,47.1,29.65,North,-999,-999.0,-999.0,88,0.00,,,0.08,meteohub,2013-01-12 03:27:00,
2013-01-11 21:32:00,51.1,47.3,29.65,North,-999,-999.0,-999.0,87,0.00,,,0.08,meteohub,2013-01-12 03:32:00,
2013-01-11 21:37:00,51.1,47.1,29.65,North,-999,-999.0,-999.0,86,0.00,,,0.08,meteohub,2013-01-12 03:37:00,
2013-01-11 21:42:00,50.9,46.9,29.65,North,-999,-999.0,-999.0,86,0.00,,,0.08,meteohub,2013-01-12 03:42:00,
2013-01-11 21:47:00,50.9,46.9,29.65,North,-999,-999.0,-999.0,86,0.00,,,0.08,meteohub,2013-01-12 03:47:00,
2013-01-11 21:52:00,51.1,46.8,29.64,North,-999,-999.0,-999.0,85,0.00,,,0.08,meteohub,2013-01-12 03:52:00,
2013-01-11 21:57:00,51.1,46.8,29.64,North,-999,-999.0,-999.0,85,0.00,,,0.08,meteohub,2013-01-12 03:57:00,
2013-01-11 22:02:00,50.9,46.6,29.63,North,-999,-999.0,-999.0,85,0.00,,,0.08,meteohub,2013-01-12 04:02:00,
2013-01-11 22:07:00,51.1,46.8,29.63,North,-999,-999.0,-999.0,85,0.00,,,0.08,meteohub,2013-01-12 04:07:00,
2013-01-11 22:12:00,50.9,46.6,29.63,North,-999,-999.0,-999.0,85,0.00,,,0.08,meteohub,2013-01-12 04:12:00,
2013-01-11 22:17:00,50.9,46.6,29.63,North,-999,-999.0,-999.0,85,0.00,,,0.08,meteohub,2013-01-12 04:17:00,
2013-01-11 22:22:00,51.1,46.8,29.63,SE,135,0.0,0.0,85,0.00,,,0.08,meteohub,2013-01-12 04:22:00,
2013-01-11 22:27:00,51.1,46.4,29.62,North,-999,-999.0,0.0,84,0.00,,,0.08,meteohub,2013-01-12 04:27:00,
2013-01-11 22:32:00,51.3,46.6,29.62,North,-999,-999.0,0.0,84,0.00,,,0.08,meteohub,2013-01-12 04:32:00,
2013-01-11 22:37:00,51.1,46.4,29.63,North,-999,-999.0,-999.0,84,0.00,,,0.08,meteohub,2013-01-12 04:37:00,
2013-01-11 22:42:00,51.3,46.6,29.63,North,-999,-999.0,-999.0,84,0.00,,,0.08,meteohub,2013-01-12 04:42:00,
2013-01-11 22:47:00,51.4,46.8,29.62,North,-999,-999.0,-999.0,84,0.00,,,0.08,meteohub,2013-01-12 04:47:00,
2013-01-11 22:52:00,51.3,46.6,29.63,North,-999,-999.0,-999.0,84,0.00,,,0.08,meteohub,2013-01-12 04:52:00,
2013-01-11 22:57:00,51.3,46.2,29.62,North,-999,-999.0,-999.0,83,0.00,,,0.08,meteohub,2013-01-12 04:57:00,
2013-01-11 23:02:00,51.3,46.6,29.62,North,-999,-999.0,-999.0,84,0.00,,,0.08,meteohub,2013-01-12 05:02:00,
2013-01-11 23:12:00,51.1,46.0,29.61,North,-999,-999.0,-999.0,83,0.00,,,0.08,meteohub,2013-01-12 05:12:00,
2013-01-11 23:17:00,51.3,46.2,29.62,North,-999,-999.0,-999.0,83,0.00,,,0.08,meteohub,2013-01-12 05:17:00,
2013-01-11 23:22:00,51.3,46.2,29.63,North,-999,-999.0,-999.0,83,0.00,,,0.08,meteohub,2013-01-12 05:22:00,
2013-01-11 23:27:00,51.4,46.4,29.62,North,-999,-999.0,-999.0,83,0.00,,,0.08,meteohub,2013-01-12 05:27:00,
2013-01-11 23:32:00,51.3,46.2,29.62,North,-999,-999.0,-999.0,83,0.00,,,0.08,meteohub,2013-01-12 05:32:00,
2013-01-11 23:37:00,51.3,46.2,29.62,North,-999,-999.0,-999.0,83,0.00,,,0.08,meteohub,2013-01-12 05:37:00,
2013-01-11 23:42:00,51.3,46.2,29.63,WSW,248,0.0,0.0,83,0.00,,,0.08,meteohub,2013-01-12 05:42:00,
2013-01-11 23:47:00,51.3,46.2,29.62,WSW,248,0.0,0.0,83,0.00,,,0.08,meteohub,2013-01-12 05:47:00,
2013-01-11 23:52:00,51.3,46.2,29.62,North,-999,-999.0,0.0,83,0.00,,,0.08,meteohub,2013-01-12 05:52:00,
2013-01-11 23:57:00,51.3,46.0,29.61,North,-999,-999.0,0.0,82,0.00,,,0.08,meteohub,2013-01-12 05:57:00,